Tracking 18823 objects as of 21-October-2017
HD Live streaming from Space Station
objects crossing your sky now

GREB

Track GREB now!
10-day predictions
GREB is classified as:


NORAD ID: 731
Int'l Code: 1964-001E
Perigee: 907.1 km
Apogee: 923.9 km
Inclination: 69.9 °
Period: 103.2 minutes
Semi major axis: 7286 km
RCS: 0.526 m2 (medium)
Launch date: January 11, 1964
Source: United States (US)
Launch site: AIR FORCE WESTERN TEST RANGE (AFWTR)
aabbcc
Your satellite tracking list
Your tracking list is empty





NASA's NSSDC Master Catalog

Two Line Element Set (TLE):
1 00731U 64001E   17294.24166762 -.00000016  00000-0  27408-4 0  9992
2 00731  69.9066 214.5765 0011568 137.6941 299.0255 13.95803057736921
Source of the keplerian elements: AFSPC